[[{"header":{"parameterUnit":"m.s-1","parameterCategory":1,"la1":30.2991,"la2":30.254,"lo1":-89.0895,"lo2":-89.0444,"dy":0.0017,"dx":0.0017,"nx":28,"ny":28,"refTime":"2026-02-08T03:00:00:Z","depth":0,"parameterNumber":2,"parameterNumberName":"U-component_of_WINDS"},"data":[0,0,0,0,0,0,0,0,0,0,0,0,0,0,0,0,0,0,0,0,0,0,0,0,0,0,0,0,0,0,0,0,0,0,0,0,0,0,0,0,0,0,0,0,0,0,0,0,0,0,0,0,0,0,0,0,0,0,0.145,0.145,0,0.1498,0.1499,0.15,0.1473,0.1472,0.1471,0.1469,0.1521,0.1524,0.1526,0,0,0,0,0,0,0,0,0,0,0,0,0,0.1337,0.1339,0.145,0.145,0.1451,0.1498,0.1499,0.15,0.1473,0.1472,0.147,0.1469,0.152,0.1523,0.1527,0,0,0,0,0,0,0,0,0,0,0,0,0,0.1386,0.134,0.145,0.1444,0.1443,0.1498,0.1499,0.15,0.1474,0.1472,0.147,0.1468,0.1519,0.1523,0.1527,0.1591,0,0,0.1539,0.1541,0,0,0,0,0,0,0,0,0.1383,0.139,0.1444,0.1444,0.1444,0.1478,0.1478,0.1531,0.1474,0.1462,0.1469,0.1467,0.1509,0.1513,0.1527,0.1594,0.1596,0.1539,0.1542,0.1544,0.1545,0,0,0,0,0,0,0,0.138,0.1388,0.1469,0.1445,0.1445,0.1439,0.1444,0.1488,0.1496,0.1463,0.1461,0.1467,0.1508,0.1523,0.1528,0.1597,0.1539,0.1543,0.1545,0.1547,0.172,0.1722,0,0,0,0,0,0,0.1376,0.1385,0.1468,0.1471,0.1408,0.1443,0.1448,0.1469,0.1496,0.1498,0.1469,0.1466,0.1517,0.1523,0.153,0.1608,0.1543,0.1547,0.1549,0.1718,0.1721,0.1723,0,0,0,0,0,0,0.1374,0.1384,0.1466,0.1427,0.1437,0.1447,0.147,0.1471,0.1486,0.15,0.1501,0.1483,0.1516,0.1524,0.1576,0.1609,0.1549,0.1553,0.1715,0.1719,0.1722,0.1764,0,0,0,0,0,0,0.1371,0.1383,0.1407,0.1428,0.1439,0.1511,0.1472,0.1473,0.1492,0.1489,0.1513,0.1515,0.1515,0.1571,0.158,0.1613,0.1556,0.1712,0.1717,0.1721,0.1759,0.1768,0.1775,0,0,0,0,0,0.1367,0.1417,0.1408,0.1419,0.1469,0.1513,0.1519,0.1518,0.1495,0.152,0.1529,0.1514,0.1604,0.1576,0.1587,0.1622,0.171,0.1716,0.1721,0.1756,0.1766,0.1775,0,0,0,0,0,0,0.14,0.142,0.141,0.1469,0.1489,0.1508,0.1539,0.1529,0.1557,0.1552,0.1549,0.1555,0.161,0.1621,0.159,0.1686,0.1654,0.1661,0.1677,0.1687,0.1695,0.1691,0.1559,0,0,0,0,0,0.1414,0.1447,0.1463,0.1513,0.1523,0.153,0.1548,0.1545,0.1567,0.1576,0.1589,0.1611,0.1644,0.1666,0.1697,0.176,0.1766,0.179,0.1798,0.1804,0.1811,0.1847,0.1858,0.174,0.174,0.174,0,0,0.1444,0.1458,0.148,0.152,0.1535,0.157,0.1537,0.1575,0.1602,0.1582,0.1632,0.1642,0.1667,0.1725,0.1752,0.1736,0.1845,0.1811,0.1816,0.1819,0.1853,0.1864,0.1874,0.1743,0.1743,0.1742,0,0,0.1516,0.153,0.1573,0.159,0.1614,0.1617,0.1628,0.1649,0.1655,0.1705,0.1691,0.1723,0.1779,0.1798,0.1815,0.1894,0.1883,0.1905,0.1947,0.1982,0.1991,0.1999,0.2029,0.2039,0.1911,0.1911,0.1911,0,0.155,0.1601,0.1597,0.1637,0.1656,0.1638,0.1683,0.17,0.1733,0.1747,0.1728,0.18,0.1815,0.1878,0.1898,0.1911,0.1924,0.1902,0.199,0.1998,0.2006,0.2034,0.2045,0.1914,0.1914,0.1913,0.1913,0,0.1643,0.1679,0.1711,0.1744,0.1766,0.1808,0.1811,0.1834,0.1829,0.1836,0.1888,0.1905,0.194,0.1955,0.195,0.2018,0.2008,0.199,0.1958,0.202,0.2046,0.2057,0.1918,0.1917,0.1916,0.1915,0,0,0.1738,0.1767,0.1779,0.1794,0.1819,0.1848,0.189,0.1923,0.1944,0.1967,0.2003,0.2052,0.2035,0.2055,0.2052,0.2082,0.2146,0.2061,0.2062,0.2077,0.2223,0.2237,0.225,0.2138,0.214,0.2142,0.2221,0,0.1812,0.1885,0.1883,0.1951,0.1985,0.1969,0.2006,0.2026,0.2033,0.2063,0.2071,0.2106,0.2081,0.2093,0.2122,0.2132,0.2176,0.2126,0.2173,0.2174,0.2168,0.2263,0.2278,0.2353,0.2232,0.2233,0.2235,0,0.1909,0.1936,0.2007,0.2028,0.2042,0.2075,0.2106,0.2135,0.2158,0.2161,0.2183,0.2176,0.2219,0.2185,0.2246,0.2212,0.2231,0.2239,0.2242,0.2247,0.2209,0.2272,0.2376,0.2388,0.2251,0.225,0.2248,0,0.1973,0.2026,0.2076,0.2089,0.2115,0.2138,0.215,0.2171,0.2192,0.2219,0.2233,0.2265,0.2283,0.2309,0.2311,0.2286,0.2373,0.2338,0.2377,0.2378,0.2397,0.2396,0.2507,0.2408,0.2407,0.2407,0.2407,0,0.2057,0.2102,0.2105,0.2136,0.2186,0.2183,0.2233,0.2243,0.2261,0.2295,0.2283,0.2314,0.2315,0.2347,0.2349,0.24,0.2408,0.2412,0.2413,0.2414,0.2414,0.2427,0.2423,0.241,0.2409,0.2409,0.2408,0,0.2137,0.2141,0.2195,0.2214,0.222,0.2256,0.2274,0.2304,0.2309,0.2352,0.2361,0.2371,0.2409,0.2413,0.2457,0.2458,0.252,0.2514,0.2512,0.2512,0.2551,0.2548,0.2675,0.2692,0.2581,0.2582,0.2583,0,0.2191,0.2225,0.2249,0.227,0.2283,0.2317,0.2338,0.2337,0.2359,0.2388,0.2415,0.2451,0.2481,0.2542,0.2553,0.2587,0.2583,0.2625,0.2588,0.2589,0.2585,0.2583,0.2587,0.2633,0.2634,0.2635,0.2636,0,0.2287,0.2288,0.2318,0.235,0.2375,0.24,0.2423,0.2441,0.2443,0.2469,0.2507,0.253,0.2575,0.2612,0.2645,0.2658,0.2648,0.2647,0.2658,0.2661,0.2659,0.2662,0.2533,0.2645,0.2644,0.2643,0.2643,0.2642,0.2357,0.2387,0.2408,0.2443,0.246,0.2482,0.2511,0.2521,0.2552,0.2589,0.2586,0.2629,0.2651,0.2695,0.2711,0.2745,0.2731,0.2747,0.2751,0.2755,0.2759,0.2652,0.2751,0.275,0.275,0.275,0.275,0,0.2454,0.2466,0.2498,0.2531,0.2558,0.2545,0.257,0.2595,0.2632,0.2654,0.2683,0.2727,0.2763,0.2777,0.2812,0.2837,0.2833,0.2846,0.2845,0.2849,0.2769,0.2757,0.2849,0.2849,0.2849,0.2849,0.2849,0.2849,0.2507,0.2557,0.256,0.2619,0.2632,0.2673,0.2689,0.271,0.2727,0.2777,0.2806,0.2815,0.2834,0.2871,0.2904,0.2907,0.2921,0.2937,0.2938,0.2864,0.2854,0.2844,0.2833,0.2939,0.2939,0.3014,0.3015,0.3016]},{"header":{"parameterUnit":"m.s-1","parameterCategory":1,"la1":30.2991,"la2":30.254,"lo1":-89.0895,"lo2":-89.0444,"dy":0.0017,"dx":0.0017,"nx":28,"ny":28,"refTime":"2026-02-08T03:00:00:Z","depth":0,"parameterNumber":3,"parameterNumberName":"V-component_of_WINDS"},"data":[0,0,0,0,0,0,0,0,0,0,0,0,0,0,0,0,0,0,0,0,0,0,0,0,0,0,0,0,0,0,0,0,0,0,0,0,0,0,0,0,0,0,0,0,0,0,0,0,0,0,0,0,0,0,0,0,0,0,-1.7413,-1.7414,0,-1.744,-1.744,-1.744,-1.7553,-1.7555,-1.7558,-1.7561,-1.7581,-1.758,-1.7578,0,0,0,0,0,0,0,0,0,0,0,0,0,-1.7457,-1.7456,-1.7413,-1.7414,-1.7414,-1.744,-1.744,-1.744,-1.7552,-1.7556,-1.7559,-1.7562,-1.7582,-1.758,-1.7578,0,0,0,0,0,0,0,0,0,0,0,0,0,-1.7456,-1.7455,-1.7413,-1.7473,-1.7479,-1.7439,-1.744,-1.744,-1.7552,-1.7556,-1.756,-1.7563,-1.7583,-1.758,-1.7577,-1.748,0,0,-1.7569,-1.7567,0,0,0,0,0,0,0,0,-1.7456,-1.7454,-1.7464,-1.7469,-1.7475,-1.7497,-1.7463,-1.7454,-1.7551,-1.7524,-1.7561,-1.7565,-1.755,-1.755,-1.7546,-1.7481,-1.7482,-1.7568,-1.7567,-1.7565,-1.7565,0,0,0,0,0,0,0,-1.7456,-1.7454,-1.7424,-1.7464,-1.7471,-1.7498,-1.7502,-1.7462,-1.7514,-1.7526,-1.7535,-1.7537,-1.7554,-1.7548,-1.7547,-1.7483,-1.7568,-1.7566,-1.7564,-1.7563,-1.7344,-1.734,0,0,0,0,0,0,-1.7448,-1.7453,-1.7423,-1.7424,-1.7475,-1.7494,-1.7498,-1.7486,-1.7515,-1.7523,-1.7533,-1.7542,-1.7551,-1.755,-1.7548,-1.7439,-1.7565,-1.7563,-1.7561,-1.7348,-1.7343,-1.7338,0,0,0,0,0,0,-1.7449,-1.7444,-1.7422,-1.7441,-1.744,-1.7489,-1.7474,-1.7484,-1.748,-1.752,-1.753,-1.7519,-1.7554,-1.7552,-1.7498,-1.7442,-1.7561,-1.7559,-1.7353,-1.7346,-1.7341,-1.7219,0,0,0,0,0,0,-1.7449,-1.7444,-1.7408,-1.7439,-1.7439,-1.7371,-1.747,-1.7482,-1.7475,-1.7486,-1.7509,-1.7516,-1.7557,-1.7501,-1.7495,-1.744,-1.7557,-1.7358,-1.735,-1.7343,-1.7228,-1.7209,-1.7193,0,0,0,0,0,-1.745,-1.737,-1.7405,-1.7401,-1.7395,-1.7367,-1.7367,-1.7418,-1.747,-1.7434,-1.7461,-1.7516,-1.7449,-1.7495,-1.7489,-1.7432,-1.7362,-1.7352,-1.7343,-1.7236,-1.7213,-1.7193,0,0,0,0,0,0,-1.7327,-1.7375,-1.7415,-1.7343,-1.7351,-1.7386,-1.7343,-1.7391,-1.7382,-1.7393,-1.7455,-1.7459,-1.7396,-1.7408,-1.7459,-1.7341,-1.7415,-1.7404,-1.7335,-1.7314,-1.7297,-1.7295,-1.7554,0,0,0,0,0,-1.7292,-1.7267,-1.731,-1.7242,-1.7245,-1.7293,-1.7282,-1.7322,-1.7331,-1.7334,-1.7357,-1.7363,-1.7344,-1.733,-1.7314,-1.7231,-1.7238,-1.7189,-1.7171,-1.7157,-1.7146,-1.7106,-1.7085,-1.7308,-1.7308,-1.7308,0,0,-1.7218,-1.7242,-1.7221,-1.7218,-1.7229,-1.7201,-1.7294,-1.726,-1.724,-1.7328,-1.7279,-1.7296,-1.7307,-1.7239,-1.7209,-1.7247,-1.7087,-1.7145,-1.7133,-1.713,-1.7094,-1.7073,-1.7054,-1.7302,-1.7303,-1.7304,0,0,-1.707,-1.7085,-1.7032,-1.7042,-1.7058,-1.7092,-1.7079,-1.7108,-1.7124,-1.7076,-1.7143,-1.712,-1.7085,-1.7091,-1.7089,-1.6948,-1.6998,-1.6941,-1.6849,-1.6809,-1.6791,-1.6776,-1.6727,-1.6709,-1.693,-1.693,-1.693,0,-1.6976,-1.6938,-1.6997,-1.696,-1.6957,-1.704,-1.6987,-1.6993,-1.7001,-1.6997,-1.704,-1.7001,-1.7014,-1.6949,-1.6915,-1.6911,-1.6899,-1.6938,-1.679,-1.6775,-1.6761,-1.6715,-1.6696,-1.6923,-1.6924,-1.6925,-1.6925,0,-1.6822,-1.6795,-1.675,-1.6761,-1.6753,-1.6707,-1.6759,-1.6744,-1.6785,-1.6813,-1.6765,-1.6784,-1.6776,-1.6763,-1.68,-1.6704,-1.6728,-1.6779,-1.6854,-1.6732,-1.669,-1.6673,-1.6913,-1.6916,-1.6918,-1.6919,0,0,-1.6593,-1.6642,-1.6624,-1.6631,-1.6657,-1.6637,-1.6596,-1.6591,-1.6577,-1.6581,-1.6549,-1.652,-1.6569,-1.6567,-1.6606,-1.6571,-1.646,-1.6627,-1.6629,-1.6597,-1.6358,-1.6319,-1.6298,-1.6495,-1.6492,-1.6489,-1.6357,0,-1.6453,-1.6388,-1.6442,-1.6366,-1.6343,-1.6423,-1.6388,-1.64,-1.6426,-1.641,-1.6439,-1.6418,-1.6483,-1.6483,-1.6452,-1.648,-1.6413,-1.6491,-1.6465,-1.6463,-1.646,-1.6275,-1.6234,-1.6108,-1.6341,-1.6338,-1.6336,0,-1.628,-1.6281,-1.6203,-1.6239,-1.6231,-1.6198,-1.6199,-1.6183,-1.6198,-1.622,-1.6221,-1.6271,-1.6233,-1.6308,-1.6257,-1.6309,-1.6302,-1.6314,-1.6311,-1.631,-1.6392,-1.627,-1.6069,-1.605,-1.631,-1.6312,-1.6314,0,-1.6123,-1.6104,-1.6057,-1.606,-1.6099,-1.6075,-1.609,-1.611,-1.6104,-1.6105,-1.6102,-1.6097,-1.6093,-1.6088,-1.6136,-1.6186,-1.608,-1.6158,-1.6097,-1.6096,-1.607,-1.6071,-1.5865,-1.6065,-1.6065,-1.6066,-1.6066,0,-1.596,-1.591,-1.5987,-1.5958,-1.5905,-1.5968,-1.5913,-1.5936,-1.5954,-1.593,-1.5998,-1.5974,-1.6039,-1.6022,-1.6059,-1.6012,-1.601,-1.6027,-1.6037,-1.6021,-1.6019,-1.6016,-1.6026,-1.6061,-1.6062,-1.6063,-1.6064,0,-1.5775,-1.5824,-1.5778,-1.5821,-1.5831,-1.5789,-1.5826,-1.58,-1.5833,-1.5802,-1.5799,-1.5849,-1.5833,-1.5881,-1.5871,-1.5896,-1.5829,-1.5853,-1.5824,-1.5832,-1.5769,-1.5775,-1.5555,-1.553,-1.5744,-1.5742,-1.574,0,-1.5667,-1.5632,-1.5672,-1.5663,-1.5675,-1.5658,-1.5654,-1.5715,-1.5708,-1.5726,-1.5698,-1.5689,-1.5684,-1.5654,-1.5689,-1.5683,-1.5708,-1.5632,-1.5707,-1.5693,-1.5708,-1.571,-1.5707,-1.5615,-1.5613,-1.561,-1.5609,0,-1.5473,-1.55,-1.5493,-1.5495,-1.5489,-1.5493,-1.5501,-1.5489,-1.5555,-1.5544,-1.553,-1.5527,-1.5519,-1.5509,-1.5511,-1.5525,-1.5577,-1.5585,-1.5571,-1.5554,-1.5539,-1.5548,-1.5782,-1.5589,-1.5591,-1.5593,-1.5594,-1.5595,-1.5324,-1.5297,-1.5322,-1.5313,-1.5327,-1.5334,-1.5313,-1.5346,-1.5336,-1.5336,-1.5373,-1.5352,-1.5372,-1.5381,-1.539,-1.5375,-1.541,-1.5388,-1.5383,-1.5377,-1.5367,-1.5542,-1.5375,-1.5376,-1.5376,-1.5377,-1.5377,0,-1.5133,-1.5155,-1.5146,-1.5158,-1.5151,-1.5205,-1.5217,-1.5207,-1.5189,-1.5204,-1.52,-1.5185,-1.5176,-1.5212,-1.5209,-1.5189,-1.5214,-1.5186,-1.5188,-1.5191,-1.5335,-1.5349,-1.5167,-1.5167,-1.5167,-1.5167,-1.5167,-1.5167,-1.5034,-1.4992,-1.5023,-1.499,-1.5011,-1.4994,-1.4997,-1.5004,-1.5017,-1.4999,-1.4993,-1.5018,-1.5042,-1.5042,-1.5036,-1.5047,-1.5043,-1.5007,-1.5026,-1.516,-1.5181,-1.52,-1.5213,-1.5006,-1.5006,-1.4884,-1.4883,-1.4882]}]]